This is the latest recevied weather packets stored in our database for station/object KQ7A. If no packets are shown the sender has not sent any weather packets the latest 10 day(s).
| Time | Temp. | Humidity | Pressure | Rain* | Wind** | Luminosity | Snow |
|---|---|---|---|---|---|---|---|
| 1788225469 | 24.44° C | 22% | 1013 hPa | 0 mm | - | 36 W/m² | - |
| 1788225165 | 24.44° C | 24% | 1013.1 hPa | 0 mm | - | 37 W/m² | - |
| 1788224858 | 25.56° C | 21% | 1012.9 hPa | 0 mm | - | 39 W/m² | - |
| 1788224553 | 25.56° C | 21% | 1013 hPa | 0 mm | - | 42 W/m² | - |
| 1788224252 | 25.56° C | 20% | 1013.1 hPa | 0 mm | - | 44 W/m² | - |
| 1788223947 | 25.56° C | 23% | 1013 hPa | 0 mm | - | 46 W/m² | - |
| 1788223647 | 26.67° C | 22% | 1012.8 hPa | 0 mm | - | 47 W/m² | - |
| 1788223342 | 26.67° C | 19% | 1013 hPa | 0 mm | - | 164 W/m² | - |
| 1788223039 | 27.22° C | 22% | 1012.9 hPa | 0 mm | - | 207 W/m² | - |
| 1788222735 | 27.22° C | 23% | 1013.2 hPa | 0 mm | - | 53 W/m² | - |
| 1788222429 | 27.78° C | 22% | 1013.2 hPa | 0 mm | - | 65 W/m² | - |
| 1788222125 | 27.22° C | 23% | 1013.2 hPa | 0 mm | - | 74 W/m² | - |
| 1788221820 | 27.78° C | 21% | 1013.3 hPa | 0 mm | - | 304 W/m² | - |
| 1788221514 | 28.33° C | 23% | 1013.7 hPa | 0 mm | - | 326 W/m² | - |
| 1788221204 | 27.78° C | 25% | 1013.6 hPa | 0 mm | - | 325 W/m² | - |
| 1788220899 | 27.78° C | 25% | 1013.7 hPa | 0 mm | - | 349 W/m² | - |
| 1788220593 | 28.33° C | 23% | 1013.7 hPa | 0 mm | - | 369 W/m² | - |
| 1788220289 | 27.78° C | 26% | 1013.5 hPa | 0 mm | - | 375 W/m² | - |
| 1788219988 | 28.33° C | 26% | 1013.5 hPa | 0 mm | - | 383 W/m² | - |
| 1788219683 | 28.33° C | 27% | 1013.7 hPa | 0 mm | - | 384 W/m² | - |
| 1788219379 | 28.33° C | 25% | 1013.7 hPa | 0 mm | - | 399 W/m² | - |
| 1788219074 | 28.89° C | 26% | 1013.6 hPa | 0 mm | - | 424 W/m² | - |
| 1788218769 | 28.89° C | 22% | 1013.1 hPa | 0 mm | - | 432 W/m² | - |
| 1788218465 | 28.89° C | 21% | 1013.6 hPa | 0 mm | - | 442 W/m² | - |
| 1788218161 | 28.89° C | 21% | 1013.7 hPa | 0 mm | - | 443 W/m² | - |
* Rain latest hour (hover to see other rain measurements)
** Current wind speed in m/s (hover to see current wind gust speed)